Weather History for Hickory, NC

Change the Weather History Date:

Thursday, June 6, 2013

  Actual Average Record
Temperature  
Mean Temperature 70 °F -  
Max Temperature 75 °F 82 °F 97 °F (2008)
Min Temperature 66 °F 59 °F 45 °F (1976)
Cooling Degree Days 6    
Growing Degree Days 20 (Base 50)    
Moisture  
Dew Point 67 °F    
Average Humidity 88    
Maximum Humidity 100    
Minimum Humidity 78    
Precipitation  
Precipitation 1.41 in - - ()
Sea Level Pressure  
Sea Level Pressure 29.88 in    
Wind  
Wind Speed 5 mph (South)    
Max Wind Speed 9 mph    
Max Gust Speed 20 mph    
Visibility 8 miles    
Events Rain    
Averages and records for this station are not official NWS values.
T = Trace of Precipitation, MM = Missing Value Source: NWS Daily Summary

Daily Weather History Graph

Daily Weather History Graph

Search for Another Location

Airport:

Trip Planner

Search our weather history database for the weather conditions in past years. The results will help you decide how hot, cold, wet, or windy it might be!

Date:

Astronomy

Jun. 06, 2013 Rise Set
Actual Time 6:09 AM EDT 8:39 PM EDT
Civil Twilight 5:39 AM EDT 9:09 PM EDT
Nautical Twilight 5:02 AM EDT 9:46 PM EDT
Astronomical Twilight 4:22 AM EDT 10:26 PM EDT
Moon 4:46 AM EDT (6/6) 7:02 PM EDT (6/6)
Length of Visible Light 15h 29m
Length of Day
14h 29m
Waning Crescent, 4% of the Moon is Illuminated
Jun 6
Waning Crescent
Jun 8
New
Jun 16
First Quarter
Jun 23
Full
Jun 30
Last Quarter

Hourly Weather History & Observations

Time (EDT) Temp. Dew Point Humidity Pressure Visibility Wind Dir Wind Speed Gust Speed Precip Events Conditions
12:04 AM 66.2 °F 64.4 °F 94% 30.02 in 3.0 mi NE 6.9 mph - 0.04 in Rain Rain
12:38 AM 66.2 °F 64.4 °F 94% 30.01 in 6.0 mi NNE 5.8 mph - 0.06 in Rain Light Rain
12:53 AM 66.0 °F 64.9 °F 96% 29.96 in 6.0 mi North 4.6 mph - 0.07 in Rain Light Rain
1:05 AM 66.2 °F 64.4 °F 94% 30.00 in 2.0 mi NNE 5.8 mph - 0.09 in Rain Heavy Rain
1:17 AM 66.2 °F 64.4 °F 94% 30.00 in 1.0 mi Variable 4.6 mph - 0.34 in Rain Heavy Rain
1:46 AM 66.2 °F 64.4 °F 94% 29.99 in 1.2 mi North 4.6 mph - 0.81 in Rain Heavy Rain
1:53 AM 66.0 °F 64.0 °F 93% 29.93 in 0.8 mi NE 9.2 mph - 0.93 in Rain Heavy Rain
1:58 AM 66.2 °F 64.4 °F 94% 29.99 in 2.0 mi NE 6.9 mph - 0.00 in Rain Light Rain
2:02 AM 66.2 °F 64.4 °F 94% 29.99 in 6.0 mi NNE 4.6 mph - 0.00 in Rain Light Rain
2:35 AM 66.2 °F 64.4 °F 94% 29.97 in 3.0 mi NNE 3.5 mph - 0.03 in Rain Light Rain
2:53 AM 66.0 °F 64.0 °F 93% 29.91 in 10.0 mi NE 3.5 mph - 0.04 in Rain Light Rain
3:05 AM 66.2 °F 64.4 °F 94% 29.96 in 1.8 mi Variable 4.6 mph - 0.13 in Rain Heavy Rain
3:17 AM 66.2 °F 64.4 °F 94% 29.96 in 2.5 mi Calm Calm - 0.21 in Rain Heavy Rain
3:25 AM 66.2 °F 64.4 °F 94% 29.96 in 5.0 mi Variable 3.5 mph - 0.21 in Rain Light Rain
3:41 AM 66.2 °F 66.2 °F 100% 29.95 in 8.0 mi Calm Calm - 0.22 in Rain Light Rain
3:53 AM 66.9 °F 66.0 °F 97% 29.89 in 8.0 mi Calm Calm - 0.22 in   Overcast
4:53 AM 68.0 °F 66.0 °F 93% 29.88 in 7.0 mi Calm Calm - 0.00 in   Overcast
5:53 AM 68.0 °F 66.0 °F 93% 29.87 in 10.0 mi South 3.5 mph - 0.00 in   Overcast
6:53 AM 68.0 °F 66.9 °F 96% 29.87 in 10.0 mi South 3.5 mph - 0.03 in   Overcast
7:53 AM 69.1 °F 66.9 °F 93% 29.87 in 10.0 mi Variable 3.5 mph - N/A   Overcast
8:23 AM 69.8 °F 68.0 °F 94% 29.92 in 10.0 mi Calm Calm - 0.01 in   Overcast
8:53 AM 70.0 °F 66.9 °F 90% 29.86 in 10.0 mi Variable 3.5 mph - 0.01 in   Overcast
9:22 AM 71.6 °F 68.0 °F 88% 29.92 in 10.0 mi SSW 3.5 mph - N/A   Overcast
9:24 AM 71.6 °F 68.0 °F 88% 29.92 in 10.0 mi South 4.6 mph - N/A   Overcast
9:35 AM 71.6 °F 66.2 °F 83% 29.92 in 10.0 mi SSW 4.6 mph - N/A   Overcast
9:53 AM 71.1 °F 66.9 °F 87% 29.86 in 10.0 mi Variable 5.8 mph - N/A   Overcast
10:05 AM 71.6 °F 66.2 °F 83% 29.91 in 10.0 mi South 4.6 mph - N/A   Overcast
10:13 AM 71.6 °F 68.0 °F 88% 29.91 in 10.0 mi South 4.6 mph - N/A   Overcast
10:31 AM 71.6 °F 68.0 °F 88% 29.91 in 4.0 mi South 4.6 mph - 0.01 in Rain Light Rain
10:53 AM 72.0 °F 68.0 °F 87% 29.85 in 10.0 mi Variable 3.5 mph - 0.01 in Rain Light Rain
11:02 AM 71.6 °F 68.0 °F 88% 29.91 in 8.0 mi Variable 3.5 mph - N/A   Overcast
11:28 AM 71.6 °F 66.2 °F 83% 29.91 in 10.0 mi SW 3.5 mph - 0.00 in   Overcast
11:53 AM 73.0 °F 69.1 °F 87% 29.85 in 10.0 mi South 4.6 mph - 0.00 in   Overcast
12:15 PM 71.6 °F 68.0 °F 88% 29.91 in 10.0 mi South 6.9 mph - 0.00 in Rain Light Rain
12:26 PM 71.6 °F 68.0 °F 88% 29.91 in 5.0 mi South 6.9 mph - 0.01 in Rain Light Rain
12:35 PM 71.6 °F 68.0 °F 88% 29.91 in 2.5 mi SSW 8.1 mph - 0.02 in Rain Rain
12:53 PM 71.1 °F 66.9 °F 87% 29.85 in 7.0 mi SW 5.8 mph - 0.07 in Rain Light Rain
1:28 PM 73.4 °F 69.8 °F 88% 29.89 in 10.0 mi WSW 4.6 mph - 0.02 in   Overcast
1:35 PM 73.4 °F 69.8 °F 88% 29.89 in 10.0 mi SSW 5.8 mph - 0.02 in   Overcast
1:42 PM 73.4 °F 68.0 °F 83% 29.88 in 10.0 mi SW 5.8 mph - 0.02 in   Mostly Cloudy
1:53 PM 73.0 °F 69.1 °F 87% 29.81 in 10.0 mi Variable 4.6 mph - 0.02 in   Overcast
2:03 PM 73.4 °F 68.0 °F 83% 29.87 in 10.0 mi SW 5.8 mph - N/A   Mostly Cloudy
2:50 PM 73.4 °F 69.8 °F 88% 29.86 in 10.0 mi South 4.6 mph - N/A   Mostly Cloudy
2:53 PM 73.9 °F 68.0 °F 82% 29.80 in 10.0 mi South 3.5 mph - N/A   Mostly Cloudy
3:16 PM 75.2 °F 69.8 °F 83% 29.86 in 10.0 mi SSW 4.6 mph - N/A   Mostly Cloudy
3:32 PM 75.2 °F 69.8 °F 83% 29.85 in 10.0 mi South 5.8 mph - N/A   Mostly Cloudy
3:45 PM 75.2 °F 68.0 °F 78% 29.85 in 10.0 mi South 5.8 mph - N/A   Scattered Clouds
3:53 PM 75.0 °F 68.0 °F 79% 29.79 in 10.0 mi SSW 6.9 mph - N/A   Mostly Cloudy
4:21 PM 75.2 °F 68.0 °F 78% 29.85 in 10.0 mi Variable 4.6 mph - N/A   Scattered Clouds
4:53 PM 75.0 °F 68.0 °F 79% 29.78 in 10.0 mi SSW 6.9 mph - N/A   Partly Cloudy
5:53 PM 75.0 °F 68.0 °F 79% 29.77 in 10.0 mi South 9.2 mph - 0.00 in   Mostly Cloudy
6:25 PM 73.4 °F 68.0 °F 83% 29.82 in 10.0 mi South 4.6 mph - N/A   Mostly Cloudy
6:53 PM 73.0 °F 68.0 °F 84% 29.76 in 10.0 mi Variable 3.5 mph - N/A   Overcast
7:24 PM 73.4 °F 68.0 °F 83% 29.83 in 10.0 mi South 5.8 mph - N/A   Mostly Cloudy
7:53 PM 72.0 °F 68.0 °F 87% 29.77 in 10.0 mi South 4.6 mph - N/A   Mostly Cloudy
8:01 PM 71.6 °F 68.0 °F 88% 29.83 in 10.0 mi South 5.8 mph - N/A   Mostly Cloudy
8:29 PM 71.6 °F 66.2 °F 83% 29.84 in 10.0 mi South 8.1 mph - N/A   Overcast
8:53 PM 71.1 °F 66.9 °F 87% 29.78 in 10.0 mi South 5.8 mph - N/A   Overcast
9:13 PM 71.6 °F 66.2 °F 83% 29.84 in 10.0 mi SSW 6.9 mph - N/A   Overcast
9:49 PM 71.6 °F 66.2 °F 83% 29.84 in 10.0 mi Variable 3.5 mph - N/A   Mostly Cloudy
9:53 PM 71.1 °F 66.9 °F 87% 29.78 in 10.0 mi South 5.8 mph - N/A   Mostly Cloudy
10:11 PM 71.6 °F 66.2 °F 83% 29.85 in 10.0 mi Variable 4.6 mph - N/A   Overcast
10:39 PM 69.8 °F 66.2 °F 88% 29.84 in 10.0 mi South 5.8 mph - N/A   Overcast
10:43 PM 69.8 °F 66.2 °F 88% 29.85 in 10.0 mi South 3.5 mph - 0.00 in Rain Light Rain
10:53 PM 70.0 °F 66.9 °F 90% 29.79 in 10.0 mi South 6.9 mph - 0.00 in Rain Light Rain
11:03 PM 69.8 °F 66.2 °F 88% 29.85 in 10.0 mi South 8.1 mph - 0.00 in Rain Light Rain
11:10 PM 69.8 °F 66.2 °F 88% 29.85 in 7.0 mi South 9.2 mph 18.4 mph 0.01 in Rain Light Rain
11:30 PM 68.0 °F 64.4 °F 88% 29.85 in 10.0 mi South 9.2 mph 19.6 mph 0.01 in   Overcast
11:53 PM 68.0 °F 64.9 °F 90% 29.79 in 10.0 mi South 6.9 mph - 0.01 in Rain Light Rain